Time,TemperatureF,DewpointF,PressureIn,WindDirection,WindDirectionDegrees,WindSpeedMPH,WindSpeedGustMPH,Humidity,HourlyPrecipIn,Conditions,Clouds,dailyrainin,SoftwareType,DateUTC
2013-10-29 00:16:00,58.0,19.0,29.93,South,174,7.0,16.0,22,0.00,,,-99.99,,2013-10-29 06:16:00,
2013-10-29 00:25:00,58.0,18.0,29.93,SSW,209,6.0,9.0,21,0.00,,,-99.99,,2013-10-29 06:25:00,
2013-10-29 00:43:00,57.0,20.0,29.92,South,172,4.0,7.0,23,0.00,,,-99.99,,2013-10-29 06:43:00,
2013-10-29 00:52:00,57.0,21.0,29.93,SSE,164,8.0,9.0,24,0.00,,,-99.99,,2013-10-29 06:52:00,
2013-10-29 01:11:00,57.0,21.0,29.93,SSE,168,4.0,8.0,24,0.00,,,-99.99,,2013-10-29 07:11:00,
2013-10-29 01:24:00,57.0,21.0,29.93,SSE,156,6.0,8.0,24,0.00,,,-99.99,,2013-10-29 07:24:00,
2013-10-29 01:55:00,57.0,22.0,29.93,SSE,154,6.0,9.0,25,0.00,,,-99.99,,2013-10-29 07:55:00,
2013-10-29 02:13:00,57.0,22.0,29.94,South,174,4.0,10.0,25,0.00,,,-99.99,,2013-10-29 08:13:00,
2013-10-29 02:24:00,56.0,22.0,29.94,SSE,168,5.0,11.0,26,0.00,,,-99.99,,2013-10-29 08:24:00,
2013-10-29 02:42:00,56.0,23.0,29.94,SSE,154,4.0,10.0,27,0.00,,,-99.99,,2013-10-29 08:42:00,
2013-10-29 02:52:00,56.0,23.0,29.94,SE,139,6.0,9.0,27,0.00,,,-99.99,,2013-10-29 08:52:00,
2013-10-29 03:21:00,56.0,23.0,29.93,SSE,167,6.0,11.0,27,0.00,,,-99.99,,2013-10-29 09:21:00,
2013-10-29 03:53:00,55.0,23.0,29.93,South,172,8.0,9.0,28,0.00,,,-99.99,,2013-10-29 09:53:00,
2013-10-29 04:23:00,55.0,23.0,29.94,South,181,6.0,13.0,29,0.00,,,-99.99,,2013-10-29 10:23:00,
2013-10-29 04:53:00,54.0,23.0,29.95,SSW,206,7.0,9.0,30,0.00,,,-99.99,,2013-10-29 10:53:00,
2013-10-29 05:22:00,54.0,24.0,29.95,SSE,158,2.0,7.0,31,0.00,,,-99.99,,2013-10-29 11:22:00,
2013-10-29 05:42:00,53.0,24.0,29.96,SSE,168,7.0,9.0,32,0.00,,,-99.99,,2013-10-29 11:42:00,
2013-10-29 05:52:00,53.0,24.0,29.96,SE,146,6.0,7.0,32,0.00,,,-99.99,,2013-10-29 11:52:00,
2013-10-29 06:12:00,53.0,24.0,29.97,South,175,8.0,13.0,32,0.00,,,-99.99,,2013-10-29 12:12:00,
2013-10-29 06:21:00,53.0,24.0,29.97,South,175,8.0,13.0,32,0.00,,,-99.99,,2013-10-29 12:21:00,
2013-10-29 06:52:00,53.0,24.0,29.98,SSE,157,7.0,11.0,32,0.00,,,-99.99,,2013-10-29 12:52:00,
2013-10-29 07:11:00,53.0,25.0,29.98,SSE,160,5.0,9.0,33,0.00,,,-99.99,,2013-10-29 13:11:00,
2013-10-29 07:21:00,52.0,25.0,29.98,SSE,147,4.0,7.0,34,0.00,,,-99.99,,2013-10-29 13:21:00,
2013-10-29 07:42:00,52.0,25.0,29.99,SE,127,7.0,7.0,34,0.00,,,-99.99,,2013-10-29 13:42:00,
2013-10-29 07:52:00,52.0,25.0,29.99,SSE,157,5.0,7.0,34,0.00,,,-99.99,,2013-10-29 13:52:00,
2013-10-29 08:21:00,52.0,25.0,30.01,South,170,6.0,8.0,34,0.00,,,-99.99,,2013-10-29 14:21:00,
2013-10-29 08:42:00,53.0,25.0,30.01,SSE,156,6.0,11.0,34,0.00,,,-99.99,,2013-10-29 14:42:00,
2013-10-29 08:52:00,52.0,25.0,30.01,South,172,5.0,9.0,35,0.00,,,-99.99,,2013-10-29 14:52:00,
2013-10-29 09:21:00,52.0,26.0,30.03,SE,133,3.0,8.0,36,0.00,,,-99.99,,2013-10-29 15:21:00,
2013-10-29 09:44:00,56.0,27.0,30.02,SSE,163,6.0,8.0,32,0.00,,,-99.99,,2013-10-29 15:44:00,
2013-10-29 09:54:00,56.0,25.0,30.01,South,172,7.0,10.0,30,0.00,,,-99.99,,2013-10-29 15:54:00,
2013-10-29 10:23:00,58.0,25.0,29.99,SSW,203,8.0,9.0,28,0.00,,,-99.99,,2013-10-29 16:23:00,
2013-10-29 10:53:00,59.0,26.0,29.97,South,177,6.0,9.0,28,0.00,,,-99.99,,2013-10-29 16:53:00,
2013-10-29 11:22:00,60.0,26.0,29.96,WSW,239,5.0,11.0,27,0.00,,,-99.99,,2013-10-29 17:22:00,
2013-10-29 11:42:00,61.0,25.0,29.95,South,191,6.0,8.0,25,0.00,,,-99.99,,2013-10-29 17:42:00,
2013-10-29 11:52:00,61.0,23.0,29.94,SSW,205,5.0,11.0,23,0.00,,,-99.99,,2013-10-29 17:52:00,
2013-10-29 12:21:00,63.0,24.0,29.92,SSW,199,9.0,12.0,22,0.00,,,-99.99,,2013-10-29 18:21:00,
2013-10-29 12:42:00,62.0,22.0,29.91,SW,223,9.0,13.0,21,0.00,,,-99.99,,2013-10-29 18:42:00,
2013-10-29 12:52:00,62.0,23.0,29.90,South,177,7.0,17.0,22,0.00,,,-99.99,,2013-10-29 18:52:00,
2013-10-29 13:11:00,63.0,24.0,29.88,SSW,194,12.0,14.0,22,0.00,,,-99.99,,2013-10-29 19:11:00,
2013-10-29 13:21:00,63.0,20.0,29.87,SSW,213,14.0,18.0,19,0.00,,,-99.99,,2013-10-29 19:21:00,
2013-10-29 13:53:00,63.0,21.0,29.85,South,182,12.0,18.0,20,0.00,,,-99.99,,2013-10-29 19:53:00,
2013-10-29 14:12:00,64.0,21.0,29.84,SW,226,6.0,19.0,19,0.00,,,-99.99,,2013-10-29 20:12:00,
2013-10-29 14:22:00,65.0,20.0,29.83,SW,229,13.0,19.0,18,0.00,,,-99.99,,2013-10-29 20:22:00,
2013-10-29 14:42:00,64.0,20.0,29.82,SW,220,10.0,14.0,18,0.00,,,-99.99,,2013-10-29 20:42:00,
2013-10-29 14:52:00,66.0,21.0,29.81,SSW,213,14.0,19.0,18,0.00,,,-99.99,,2013-10-29 20:52:00,
2013-10-29 15:22:00,66.0,21.0,29.80,SW,226,9.0,18.0,18,0.00,,,-99.99,,2013-10-29 21:22:00,
2013-10-29 15:54:00,66.0,20.0,29.78,SSW,201,14.0,15.0,17,0.00,,,-99.99,,2013-10-29 21:54:00,
2013-10-29 16:23:00,65.0,20.0,29.78,South,191,12.0,19.0,18,0.00,,,-99.99,,2013-10-29 22:23:00,
2013-10-29 16:43:00,65.0,24.0,29.79,SSW,198,15.0,32.0,21,0.00,,,-99.99,,2013-10-29 22:43:00,
2013-10-29 16:53:00,65.0,25.0,29.79,SSW,212,20.0,28.0,22,0.00,,,-99.99,,2013-10-29 22:53:00,
2013-10-29 17:12:00,64.0,23.0,29.79,South,178,17.0,25.0,21,0.00,,,-99.99,,2013-10-29 23:12:00,
2013-10-29 17:22:00,66.0,23.0,29.79,SSW,203,16.0,27.0,19,0.00,,,-99.99,,2013-10-29 23:22:00,
2013-10-29 17:53:00,65.0,22.0,29.78,SSW,206,11.0,24.0,19,0.00,,,-99.99,,2013-10-29 23:53:00,
2013-10-29 18:21:00,64.0,22.0,29.79,SW,216,14.0,27.0,20,0.00,,,-99.99,,2013-10-30 00:21:00,
2013-10-29 18:42:00,63.0,22.0,29.80,SSW,202,17.0,26.0,21,0.00,,,-99.99,,2013-10-30 00:42:00,
2013-10-29 18:52:00,63.0,22.0,29.81,SSW,213,16.0,24.0,21,0.00,,,-99.99,,2013-10-30 00:52:00,
2013-10-29 19:11:00,62.0,23.0,29.81,SW,219,18.0,28.0,22,0.00,,,-99.99,,2013-10-30 01:11:00,
2013-10-29 19:22:00,61.0,24.0,29.83,South,181,8.0,22.0,24,0.00,,,-99.99,,2013-10-30 01:22:00,
2013-10-29 19:52:00,60.0,25.0,29.84,South,175,11.0,22.0,26,0.00,,,-99.99,,2013-10-30 01:52:00,
2013-10-29 20:21:00,59.0,25.0,29.86,SSW,194,12.0,21.0,27,0.00,,,-99.99,,2013-10-30 02:21:00,
2013-10-29 20:52:00,59.0,25.0,29.86,SE,143,9.0,23.0,27,0.00,,,-99.99,,2013-10-30 02:52:00,
2013-10-29 21:21:00,58.0,25.0,29.86,South,181,9.0,15.0,28,0.00,,,-99.99,,2013-10-30 03:21:00,
2013-10-29 21:44:00,58.0,26.0,29.86,South,191,10.0,15.0,29,0.00,,,-99.99,,2013-10-30 03:44:00,
2013-10-29 21:54:00,58.0,26.0,29.87,SSW,198,13.0,14.0,29,0.00,,,-99.99,,2013-10-30 03:54:00,
2013-10-29 22:13:00,57.0,25.0,29.87,SW,227,9.0,12.0,29,0.00,,,-99.99,,2013-10-30 04:13:00,
2013-10-29 22:53:00,56.0,25.0,29.88,SSE,168,6.0,7.0,30,0.00,,,-99.99,,2013-10-30 04:53:00,
2013-10-29 23:22:00,55.0,25.0,29.88,SSW,206,8.0,9.0,31,0.00,,,-99.99,,2013-10-30 05:22:00,
2013-10-29 23:53:00,55.0,25.0,29.88,SSW,196,5.0,11.0,31,0.00,,,-99.99,,2013-10-30 05:53:00,